Location: Unspecified
(50.1700°N, 6.8600°E)
Time: 18:13:02
(UTC+00:00)

Iridium 2 - Pass Details

Date: 24 January 2019
Orbit: 506 x 519 km, 85.5° (Epoch: 18 February)

Event Time Altitude Azimuth Distance (km) Brightness Sun altitude
Rises 06:30:31 0° 347° (NNW) 2,624 7.0 -7.6°
Reaches altitude 10° 06:32:45 10° 339° (NNW) 1,733 6.0 -7.3°
Maximum altitude 06:36:14 36° 272° (W) 822 4.3 -6.8°
Drops below altitude 10° 06:39:41 10° 205° (SSW) 1,721 6.3 -6.3°
Sets 06:41:54 0° 197° (SSW) 2,602 7.4 -5.9°
